Location: Bussy-Saint-Georges
(48.8410°N, 2.7017°E)
Time: 16:10:22
(UTC+00:00)

SL-16 R/B - Pass Details

Date: 18 October 2021
Orbit: 842 x 846 km, 71.0° (Epoch: 29 November)

Event Time Altitude Azimuth Distance (km) Brightness Sun altitude
Rises 21:03:17 0° 251° (WSW) 3,397 5.7 -40.0°
Reaches altitude 10° 21:06:13 10° 265° (W) 2,466 5.0 -40.4°
Enters shadow 21:09:26 22° 298° (WNW) 1,778 4.3 -40.8°
